Dewpoint
67 70 73 72 71 71 72 72 72 72 72 72 71 71 71 71 71 71 71 70 71 70 69 69 67 66 67 67 67 67 68 68 67 68 67 67 66 64 64 64 65 60 63
69 70 72 72 72 72 72 73 72 72 72 72 71 70 70 70 70 71 70 70 70 69 68 67 67 68 66 66 66 67 66 67 67 66 66 65 65 66 64 66 63 61 63
68 70 70 72 72 72 72 72 72 72 72 72 71 71 71 70 71 70 70 70 68 67 67 66 67 66 66 66 68 67 66 65 65 65 65 62 63 65 63 65 63 62 63
68 69 70 72 72 72 72 72 72 72 72 71 71 71 70 71 71 69 69 68 68 67 67 67 65 67 67 67 67 66 64 65 65 64 59 60 59 63 62 62 63 62 62
67 69 71 72 72 72 72 72 72 72 72 71 71 71 71 70 69 69 68 67 68 67 66 65 64 66 66 67 67 66 64 65 65 61 59 58 58 60 62 62 62 62 62
67 69 71 72 72 72 72 72 72 71 70 71 71 71 70 69 68 67 66 67 67 66 65 64 65 65 65 66 67 66 66 65 63 59 60 60 58 62 62 62 62 62 62
67 69 70 71 71 72 71 71 71 71 70 70 70 70 69 68 67 66 66 67 65 63 63 65 65 64 65 66 66 65 65 64 59 58 57 57 57 62 62 62 61 61 61
67 68 69 70 70 70 70 70 70 70 71 70 68 69 68 68 67 66 66 67 65 64 64 65 64 64 64 66 66 64 63 62 58 57 58 59 62 62 62 61 61 61 61
66 67 67 67 68 69 69 69 69 69 69 69 69 69 69 68 67 66 66 66 64 64 64 65 64 64 64 65 65 64 63 62 57 57 57 59 63 62 61 61 61 60 60
65 65 65 65 65 66 66 68 67 68 68 69 69 67 67 67 67 67 66 65 65 64 64 64 64 64 63 64 64 63 62 61 57 58 57 56 61 61 61 60 60 60 59
64 63 63 63 64 65 65 66 67 67 67 67 66 65 64 64 64 64 64 65 65 64 64 64 63 62 62 60 61 62 60 56 56 56 57 62 61 61 60 60 59 59 59
62 63 62 64 64 64 64 65 65 65 64 64 64 64 64 64 63 63 63 64 65 65 64 63 63 61 58 54 57 59 56 56 56 55 58 61 60 60 60 59 59 58 58
62 62 63 63 64 64 64 64 64 64 63 63 62 63 64 63 63 62 62 61 61 61 61 61 60 57 54 54 55 55 55 55 56 56 57 61 59 59 59 59 58 58 57
62 62 62 62 63 64 64 64 64 62 63 61 60 62 63 63 61 60 59 59 57 57 57 58 56 54 53 53 54 55 55 56 56 57 58 58 60 59 58 58 58 57 57
62 62 62 63 63 64 64 64 64 63 59 59 59 59 60 60 60 61 60 59 57 55 54 53 53 53 52 52 53 54 54 55 56 56 57 58 58 59 58 58 57 57 56
62 62 63 63 62 63 64 63 61 60 59 58 58 57 57 57 56 55 57 57 55 54 53 53 52 52 52 52 52 52 53 55 55 54 55 56 59 59 57 56 56 55 55
62 62 63 62 63 63 63 61 60 59 59 58 57 56 55 55 53 53 53 52 54 54 53 53 52 52 52 52 52 52 51 53 54 53 53 52 54 56 56 53 52 52 52
62 62 63 63 63 63 61 60 58 59 58 58 57 56 55 55 54 53 53 51 52 54 53 52 51 51 51 51 51 51 50 49 50 53 52 51 51 51 52 51 50 50 49
62 63 63 63 63 63 61 58 58 57 57 57 56 55 55 55 55 54 52 51 51 52 52 52 51 50 50 50 48 48 47 45 45 46 49 51 50 50 48 50 50 48 47
62 63 63 63 63 62 61 58 57 57 56 56 55 55 55 55 55 54 51 50 50 50 51 50 49 49 49 48 46 45 44 44 43 43 43 45 46 46 46 44 45 44 47
61 62 62 62 62 61 58 57 56 55 55 55 55 55 54 54 54 53 51 50 49 48 48 48 48 47 47 46 45 45 45 45 43 42 41 41 41 41 39 41 39 41 41
61 62 62 61 61 59 57 57 56 56 55 55 55 55 55 55 55 53 51 50 49 48 47 48 47 47 47 47 45 45 43 44 46 45 44 41 39 39 36 33 35 33 34
61 61 61 60 59 58 57 57 57 56 56 55 55 55 56 56 55 54 53 52 52 52 49 48 47 47 46 47 47 45 42 41 44 45 45 44 43 40 37 35 32 31 30
60 61 60 60 58 57 57 57 56 55 54 55 55 56 56 56 56 55 55 54 54 54 52 49 48 47 47 46 47 47 47 45 42 42 45 44 43 41 41 39 36 33 31
61 61 60 58 58 57 57 56 55 55 56 56 56 56 56 56 56 56 56 56 55 54 53 51 50 49 49 48 47 47 46 46 45 43 41 43 45 43 42 41 40 37 34
60 60 60 59 57 57 57 56 56 55 56 56 56 56 56 56 56 56 56 56 56 55 54 53 51 50 50 50 50 48 47 46 45 45 43 43 44 45 45 42 41 40 38
Lifted_Index
-4 -4 -5 -5 -5 -5 -5 -5 -5 -5 -5 -5 -4 -4 -4 -4 -4 -4 -3 -3 -2 -2 -1 -0 0 1 1 1 2 2 2 2 2 2 2 3 3 4 4 4 4 5 5
-4 -4 -4 -5 -5 -5 -5 -5 -5 -5 -5 -5 -4 -4 -4 -4 -3 -3 -3 -3 -2 -1 -1 0 1 1 1 1 2 2 2 2 2 2 3 3 3 4 4 4 4 5 5
-4 -4 -4 -5 -5 -5 -5 -5 -5 -5 -5 -5 -4 -4 -4 -3 -3 -3 -2 -2 -1 -1 -0 0 1 1 1 1 1 2 2 3 3 3 3 3 3 4 4 4 5 5 5
-4 -4 -4 -5 -5 -5 -5 -5 -5 -5 -5 -5 -4 -4 -4 -3 -3 -2 -2 -1 -1 -0 0 1 1 1 1 1 1 2 2 3 3 4 4 4 4 4 5 5 5 5 5
-4 -4 -4 -5 -5 -5 -5 -5 -5 -5 -4 -4 -4 -4 -3 -3 -2 -2 -1 -1 -0 0 1 1 1 1 1 1 1 2 2 3 3 4 4 4 5 5 5 5 5 5 5
-3 -4 -4 -4 -4 -5 -5 -4 -4 -4 -4 -4 -4 -4 -3 -2 -1 -1 -0 0 1 1 2 2 2 1 1 1 1 2 2 3 4 4 5 5 5 5 5 5 5 5 5
-3 -3 -4 -4 -4 -4 -4 -4 -4 -4 -3 -3 -3 -3 -2 -2 -1 0 0 1 1 2 2 2 2 2 1 1 1 2 3 3 4 5 5 5 5 4 4 5 5 5 5
-3 -3 -3 -3 -3 -3 -3 -3 -3 -3 -3 -3 -2 -2 -2 -1 -0 1 1 1 2 2 2 2 2 2 2 1 1 2 3 4 4 4 4 4 4 4 4 5 5 5 5
-2 -2 -2 -2 -2 -2 -2 -2 -2 -2 -2 -2 -2 -2 -2 -1 -0 1 1 2 2 2 2 2 2 2 2 2 2 2 3 4 4 4 4 4 4 4 4 5 5 5 5
-2 -2 -1 -1 -1 -1 -1 -1 -1 -1 -1 -2 -1 -1 -1 -0 0 1 2 2 2 2 2 2 2 3 3 3 3 3 3 4 4 4 4 3 3 4 4 5 5 5 5
-1 -1 -1 -0 -0 -0 -0 -0 -0 -0 -0 -1 -0 0 1 1 2 2 2 2 2 2 2 2 3 3 3 3 3 3 4 4 4 4 3 3 3 4 4 4 5 5 5
-1 -1 -0 -0 0 0 -0 -0 -0 0 0 0 0 1 1 2 3 3 3 3 3 2 2 3 3 4 4 3 3 3 4 4 4 4 3 3 3 4 4 4 5 5 5
-1 -1 -1 -0 -0 -0 -0 -0 0 1 1 1 1 1 1 2 3 4 4 4 4 3 3 3 4 4 3 3 3 3 3 4 4 4 3 3 3 3 4 4 4 5 5
-2 -1 -1 -0 -0 -0 -0 -0 0 1 1 1 1 1 2 3 3 4 4 4 4 4 4 4 4 4 3 3 3 3 3 3 4 4 4 3 3 3 4 4 4 5 5
-2 -1 -1 -0 -0 -0 -0 -0 0 1 1 2 2 2 2 3 3 3 3 4 4 4 4 4 4 4 3 3 3 3 3 3 4 4 4 4 3 3 4 4 4 5 5
-2 -2 -1 -1 -0 -0 -0 -0 0 1 2 2 2 2 3 3 2 2 2 3 3 4 4 4 4 3 3 3 3 3 3 4 4 4 4 4 4 4 4 4 4 5 5
-2 -2 -1 -1 -1 -1 -0 -0 0 1 2 2 3 3 3 3 3 2 2 3 3 3 4 4 4 4 3 3 3 3 3 4 4 4 4 4 5 5 5 6 6 6 6
-2 -2 -2 -1 -1 -1 -1 -0 0 1 1 2 3 3 3 3 3 3 3 3 3 3 3 3 4 4 4 4 4 4 4 4 5 5 5 5 6 6 7 7 8 8 8
-2 -2 -2 -1 -1 -1 -0 -0 0 1 1 2 3 3 3 3 3 3 4 4 4 3 3 3 4 4 4 4 4 5 5 5 6 6 6 6 7 7 8 9 10 10 10
-2 -2 -1 -1 -1 -1 -0 -0 0 1 1 2 3 3 3 3 3 3 4 4 4 4 4 4 4 4 4 5 5 6 6 7 7 7 8 8 8 8 9 10 11 11 11
-2 -2 -1 -1 -1 -1 -0 -0 0 1 2 2 3 3 2 2 2 3 3 4 5 4 4 4 4 4 5 5 6 7 7 7 8 8 8 9 9 9 9 9 10 10 10
-2 -2 -1 -1 -0 -0 -0 0 1 1 2 2 2 2 2 2 2 2 3 4 4 5 5 5 5 5 5 6 6 7 7 7 7 7 8 8 8 8 8 8 8 9 9
-2 -2 -1 -1 -0 -0 0 0 1 1 2 2 2 2 2 1 2 2 3 3 4 4 4 5 5 5 6 6 6 6 6 6 6 6 6 7 7 7 7 7 7 8 8
-2 -1 -1 -1 -0 0 0 0 0 1 1 1 2 1 1 1 1 2 2 3 3 3 4 4 5 5 6 6 6 6 6 6 6 6 6 6 6 6 6 7 7 7 8
-2 -1 -1 -1 -0 0 0 0 0 1 1 1 1 1 1 1 1 1 1 2 2 3 3 4 4 5 6 6 6 6 6 6 6 6 7 7 7 7 7 7 7 7 7
-2 -2 -1 -0 -0 0 0 0 0 1 1 1 1 1 1 1 1 1 1 1 2 2 3 3 4 5 5 6 6 6 6 6 6 6 7 7 7 7 7 7 7 7 7